Flag for Morocco Weather past 2 weeks in Tangier, Morocco

Now
50 °F

Passing clouds.


Feels Like: 47 °F
Forecast: 47 / 62 °F
Wind: 8 mph from Southwest

Location: Tanger Aerodrome

Current Time: Jan 28, 2015 at 7:19:47 AM

Latest Report: Jan 28, 2015 at 7:00 AM


Visibility: 5 mi

Pressure: 30.30 "Hg

Humidity: 88%

Dew point: 46 °F

Location of TangierLocation

Historic Weather in Tangier — Graph

°F

Tangier temperature yesterday

Maximum temperature yesterday: 61 °F (at 2:00 PM)
Minimum temperature yesterday: 39 °F (at 7:30 AM)
Average temperature yesterday: 50 °F

Past Weeks' High & Low Weather Summary

 TemperatureHumidityPressure
High70 °F (Jan 13, 1:00 PM)94% (Jan 13, 11:00 PM)30.42 "Hg (Jan 13, 11:00 PM)
Low34 °F (Jan 25, 7:00 AM)41% (Jan 24, 2:30 PM)29.68 "Hg (Jan 19, 4:00 AM)
Average52 °F78%30.18 "Hg
* Reported Jan 13 6:30 AM — Jan 28 6:00 AM, Tangier, Weather by CustomWeather, © 2014

Note: Actual official high and low records may vary slightly from our data, if they occured in-between our weather recording intervals... More about our weather records

Advertising

Tangier weather history for previous 24 hours

 ConditionsComfort  
Time TempWeatherWind HumidityBarometerVisibility
6:00 AM
Jan 28
48 °FPassing clouds.7 mph94%30.30 "Hg5 mi
5:30 AM50 °FPassing clouds.8 mph88%30.30 "Hg5 mi
5:00 AM50 °FPassing clouds.7 mph94%30.30 "Hg5 mi
4:30 AM46 °FPassing clouds.2 mph93%30.30 "Hg4 mi
4:00 AM46 °FPassing clouds.3 mph93%30.30 "Hg4 mi
3:30 AM45 °FFog.No wind93%30.30 "Hg2 mi
3:00 AM45 °FFog.No wind93%30.30 "Hg2 mi
2:30 AM43 °FFog.No wind93%30.30 "Hg2 mi
2:00 AM45 °FFog.1 mph93%30.30 "Hg2 mi
1:30 AM45 °FFog.2 mph93%30.33 "Hg2 mi
1:00 AM45 °FFog.2 mph93%30.33 "Hg2 mi
12:30 AM46 °FFog.1 mph93%30.33 "Hg2 mi
12:00 AM48 °FFog.No wind87%30.33 "Hg2 mi
11:30 PM
Jan 27
45 °FFog.No wind93%30.33 "Hg2 mi
11:00 PM48 °FFog.No wind87%30.33 "Hg2 mi
10:30 PM48 °FFog.No wind87%30.33 "Hg2 mi
10:00 PM50 °FFog.1 mph88%30.33 "Hg2 mi
9:30 PM52 °FFog.No wind88%30.33 "Hg2 mi
9:00 PM52 °FPassing clouds.No wind88%30.33 "Hg5 mi
8:30 PM52 °FPassing clouds.No wind88%30.33 "Hg5 mi
8:00 PM54 °FPassing clouds.No wind88%30.33 "Hg5 mi
7:30 PM55 °FPassing clouds.No wind88%30.33 "Hg5 mi
7:00 PM55 °FPassing clouds.5 mph88%30.33 "Hg5 mi
6:30 PM55 °FPassing clouds.5 mph88%30.33 "Hg5 mi
6:00 PM55 °FPassing clouds.6 mph88%30.33 "Hg5 mi
5:30 PM57 °FPassing clouds.7 mph82%30.33 "Hg5 mi
5:00 PM59 °FPassing clouds.8 mph77%30.30 "Hg5 mi
4:30 PM59 °FScattered clouds.8 mph77%30.33 "Hg5 mi
4:00 PM59 °FScattered clouds.9 mph77%30.33 "Hg5 mi
3:30 PM61 °FScattered clouds.10 mph72%30.33 "Hg5 mi
3:00 PM61 °FScattered clouds.10 mph72%30.33 "Hg5 mi
2:30 PM61 °FScattered clouds.9 mph77%30.33 "Hg5 mi
2:00 PM61 °FScattered clouds.8 mph77%30.36 "Hg5 mi
1:30 PM59 °FScattered clouds.8 mph82%30.36 "Hg5 mi
1:00 PM59 °FScattered clouds.9 mph88%30.36 "Hg5 mi
12:30 PM57 °FScattered clouds.9 mph88%30.39 "Hg5 mi
12:00 PM55 °FScattered clouds.8 mph94%30.39 "Hg5 mi
11:30 AM54 °FScattered clouds.3 mph94%30.39 "Hg4 mi
11:00 AM52 °FFog.6 mph94%30.42 "Hg2 mi
10:30 AM52 °FFog.7 mph94%30.42 "Hg1 mi
10:00 AM50 °FFog.5 mph94%30.39 "Hg1 mi
9:30 AM50 °FFog.5 mph94%30.39 "Hg1 mi
9:00 AM48 °FFog.5 mph94%30.39 "Hg2 mi
8:30 AM45 °FBroken clouds.No wind93%30.36 "Hg3 mi
8:00 AM41 °FBroken clouds.No wind93%30.36 "Hg3 mi
7:30 AM39 °FFog.2 mph93%30.36 "Hg2 mi
7:00 AM41 °FFog.5 mph93%30.36 "Hg2 mi
Weather by CustomWeather, © 2014

See weather overviewHow to use our weather pages